Weather History for Glencoe, MN

Change the Weather History Date:

Thursday, April 3, 2014

  Actual Average (KHCD) Record (KHCD)
Temperature  
Mean Temperature 33 °F -  
Max Temperature 37 °F 49 °F 76 °F (1981)
Min Temperature 29 °F 28 °F 3 °F (1975)
Degree Days  
Heating Degree Days 32    
Moisture  
Dew Point 29 °F    
Average Humidity 81    
Maximum Humidity 90    
Minimum Humidity 57    
Precipitation  
Precipitation 0.21 in - - ()
Sea Level Pressure  
Sea Level Pressure 29.90 in    
Wind  
Wind Speed 8 mph (NE)    
Max Wind Speed 17 mph    
Max Gust Speed 25 mph    
Visibility 6 miles    
Events Rain , Snow    
Averages and records for this station are not official NWS values.
T = Trace of Precipitation, MM = Missing Value Source: NWS Daily Summary

Daily Weather History Graph

Daily Weather History Graph

Search for Another Location

Airport:

Trip Planner

Search our weather history database for the weather conditions in past years. The results will help you decide how hot, cold, wet, or windy it might be!

Date:

Astronomy

Apr. 03, 2014 Rise Set
Actual Time 6:53 AM CDT 7:46 PM CDT
Civil Twilight 6:23 AM CDT 8:16 PM CDT
Nautical Twilight 5:48 AM CDT 8:51 PM CDT
Astronomical Twilight 5:11 AM CDT 9:28 PM CDT
Moon 9:14 AM CDT (4/3) No Moon Set
Length of Visible Light 13h 52m
Length of Day
12h 53m
Waxing Crescent, 17% of the Moon is Illuminated
Apr 3
Waxing Crescent
Apr 7
First Quarter
Apr 15
Full
Apr 22
Last Quarter
Apr 29
New

Hourly Weather History & Observations

Time (CDT) Temp. Windchill Dew Point Humidity Pressure Visibility Wind Dir Wind Speed Gust Speed Precip Events Conditions
12:13 AM 36.7 °F 31.2 °F 22.6 °F 57% 30.03 in 10.0 mi ENE 6.9 mph - N/A   Overcast
12:32 AM 36.9 °F 33.1 °F 23.4 °F 58% 30.04 in 10.0 mi East 4.6 mph - N/A   Overcast
12:52 AM 36.5 °F - 23.7 °F 60% 30.05 in 7.0 mi Calm Calm - N/A Snow Light Snow
1:13 AM 36.0 °F 32.1 °F 25.5 °F 66% 30.04 in 5.0 mi NE 4.6 mph - N/A Snow Light Snow
1:33 AM 35.2 °F 29.5 °F 26.6 °F 71% 30.01 in 10.0 mi NNE 6.9 mph - N/A   Overcast
1:53 AM 35.1 °F 31.0 °F 27.3 °F 73% 29.99 in 10.0 mi NE 4.6 mph - N/A   Overcast
2:12 AM 35.6 °F 30.7 °F 27.0 °F 71% 29.98 in 10.0 mi NE 5.8 mph - N/A   Overcast
2:33 AM 36.0 °F 32.1 °F 26.6 °F 69% 29.98 in 10.0 mi NE 4.6 mph - N/A   Overcast
2:53 AM 36.5 °F 32.7 °F 26.6 °F 67% 29.97 in 10.0 mi NE 4.6 mph - N/A   Overcast
3:13 AM 36.5 °F 32.7 °F 26.2 °F 66% 29.96 in 10.0 mi NE 4.6 mph - N/A   Overcast
3:33 AM 36.5 °F 32.7 °F 26.4 °F 67% 29.96 in 10.0 mi NE 4.6 mph - N/A   Overcast
3:53 AM 36.7 °F 31.2 °F 25.5 °F 64% 29.96 in 10.0 mi ENE 6.9 mph - N/A   Overcast
4:12 AM 37.4 °F 31.4 °F 24.8 °F 60% 29.97 in 10.0 mi ENE 8.1 mph - N/A   Overcast
4:32 AM 37.2 °F 29.1 °F 24.8 °F 61% 29.98 in 10.0 mi East 12.7 mph 19.6 mph N/A   Overcast
4:53 AM 36.9 °F 27.1 °F 27.5 °F 69% 29.97 in 10.0 mi East 17.3 mph 25.3 mph N/A   Overcast
5:12 AM 36.3 °F 26.4 °F 28.0 °F 72% 29.96 in 10.0 mi East 17.3 mph 23.0 mph N/A   Overcast
5:33 AM 35.2 °F 26.6 °F 29.3 °F 79% 29.95 in 10.0 mi East 12.7 mph 18.4 mph N/A   Overcast
5:52 AM 34.7 °F 25.9 °F 29.7 °F 82% 29.94 in 7.0 mi East 12.7 mph - N/A   Overcast
6:13 AM 34.7 °F 26.4 °F 29.8 °F 82% 29.94 in 10.0 mi ENE 11.5 mph - N/A   Overcast
6:32 AM 34.7 °F 26.9 °F 30.0 °F 83% 29.94 in 10.0 mi ENE 10.4 mph 17.3 mph N/A   Overcast
6:53 AM 34.7 °F 26.4 °F 30.2 °F 84% 29.93 in 10.0 mi ENE 11.5 mph - N/A   Overcast
7:12 AM 34.7 °F 28.1 °F 30.4 °F 84% 29.94 in 10.0 mi ENE 8.1 mph 17.3 mph N/A   Overcast
7:33 AM 34.9 °F 27.1 °F 30.2 °F 83% 29.95 in 10.0 mi ENE 10.4 mph 17.3 mph N/A   Overcast
7:53 AM 35.1 °F 27.9 °F 30.2 °F 82% 29.95 in 10.0 mi ENE 9.2 mph - N/A   Overcast
8:13 AM 34.9 °F 29.0 °F 30.2 °F 83% 29.95 in 10.0 mi ENE 6.9 mph - N/A   Overcast
8:33 AM 34.9 °F 27.1 °F 30.6 °F 84% 29.93 in 4.0 mi ENE 10.4 mph 16.1 mph N/A   Haze
8:53 AM 34.9 °F 25.3 °F 31.1 °F 86% 29.91 in 4.0 mi ENE 15.0 mph 24.2 mph N/A   Overcast
9:12 AM 34.9 °F 29.0 °F 31.3 °F 87% 29.91 in 7.0 mi NE 6.9 mph 18.4 mph N/A   Overcast
9:33 AM 34.9 °F 26.6 °F 31.1 °F 86% 29.89 in 10.0 mi ENE 11.5 mph 19.6 mph N/A   Overcast
9:53 AM 35.6 °F 27.5 °F 31.1 °F 84% 29.88 in 10.0 mi ENE 11.5 mph 21.9 mph N/A   Overcast
10:13 AM 35.8 °F 28.3 °F 30.7 °F 82% 29.88 in 10.0 mi ENE 10.4 mph 19.6 mph N/A   Overcast
10:33 AM 36.1 °F 29.3 °F 30.9 °F 81% 29.89 in 10.0 mi NE 9.2 mph - N/A   Overcast
10:53 AM 36.0 °F 32.1 °F 30.7 °F 81% 29.90 in 10.0 mi NE 4.6 mph - N/A   Overcast
11:13 AM 36.5 °F 29.2 °F 30.6 °F 79% 29.89 in 10.0 mi ENE 10.4 mph - N/A   Overcast
11:32 AM 36.1 °F 28.7 °F 30.0 °F 78% 29.90 in 7.0 mi ENE 10.4 mph 18.4 mph N/A   Overcast
11:53 AM 35.6 °F 28.0 °F 30.6 °F 82% 29.90 in 5.0 mi ENE 10.4 mph 16.1 mph N/A   Haze
12:12 PM 35.1 °F 27.9 °F 30.9 °F 85% 29.91 in 3.0 mi ENE 9.2 mph - N/A   Overcast
12:33 PM 34.7 °F 28.1 °F 30.9 °F 86% 29.90 in 2.5 mi ENE 8.1 mph - N/A   Overcast
12:53 PM 34.7 °F 26.9 °F 31.1 °F 87% 29.90 in 2.5 mi ENE 10.4 mph - N/A Rain Light Rain
1:13 PM 34.7 °F 28.8 °F 31.6 °F 89% 29.89 in 2.5 mi ENE 6.9 mph - N/A   Overcast
1:33 PM 34.2 °F 26.2 °F 31.1 °F 89% 29.88 in 3.0 mi ENE 10.4 mph - N/A   Overcast
1:52 PM 34.5 °F 26.7 °F 31.3 °F 88% 29.87 in 4.0 mi ENE 10.4 mph - N/A   Overcast
2:13 PM 34.7 °F 26.9 °F 31.5 °F 88% 29.86 in 5.0 mi ENE 10.4 mph 16.1 mph N/A   Overcast
2:32 PM 34.2 °F 25.2 °F 31.1 °F 89% 29.85 in 7.0 mi East 12.7 mph 16.1 mph N/A   Overcast
2:53 PM 34.0 °F 26.6 °F 30.2 °F 86% 29.84 in 10.0 mi ENE 9.2 mph 17.3 mph N/A   Overcast
3:13 PM 34.0 °F 29.8 °F 29.8 °F 85% 29.84 in 10.0 mi NE 4.6 mph 10.4 mph N/A   Overcast
3:33 PM 33.6 °F 26.2 °F 28.6 °F 82% 29.83 in 10.0 mi NE 9.2 mph 16.1 mph N/A   Overcast
3:53 PM 33.4 °F 26.6 °F 28.4 °F 82% 29.84 in 3.0 mi ENE 8.1 mph - 0.01 in Rain Light Rain
4:13 PM 32.9 °F 26.7 °F 28.4 °F 84% 29.83 in 2.5 mi ENE 6.9 mph - 0.01 in Snow Light Snow
4:33 PM 32.4 °F 24.6 °F 28.4 °F 85% 29.83 in 1.8 mi ENE 9.2 mph - 0.03 in Snow Light Snow
4:53 PM 32.2 °F 28.9 °F 28.6 °F 87% 29.83 in 0.8 mi ENE 3.5 mph - 0.04 in Snow Light Snow
5:12 PM 32.0 °F 26.4 °F 28.9 °F 88% 29.83 in 1.2 mi NE 5.8 mph - 0.01 in Snow Light Snow
5:53 PM 32.0 °F 27.5 °F 28.8 °F 88% 29.84 in 0.8 mi NE 4.6 mph - 0.02 in Snow Light Snow
6:13 PM 32.0 °F 28.7 °F 28.8 °F 88% 29.85 in 1.2 mi NNE 3.5 mph - 0.01 in Snow Light Snow
6:33 PM 32.0 °F 26.4 °F 29.1 °F 89% 29.84 in 0.8 mi North 5.8 mph - 0.04 in Snow Light Snow
6:52 PM 32.0 °F 25.6 °F 28.9 °F 88% 29.84 in 0.5 mi NNE 6.9 mph - 0.06 in Snow Snow
7:13 PM 32.0 °F 25.6 °F 29.1 °F 89% 29.83 in 1.0 mi North 6.9 mph - 0.01 in Snow Light Snow
7:33 PM 32.0 °F 25.6 °F 29.1 °F 89% 29.82 in 0.5 mi NNE 6.9 mph - 0.02 in Snow Light Snow
7:53 PM 32.0 °F 26.4 °F 29.1 °F 89% 29.81 in 1.2 mi NNE 5.8 mph - 0.04 in Snow Snow
8:13 PM 32.0 °F 24.8 °F 29.3 °F 90% 29.82 in 1.8 mi North 8.1 mph - N/A Snow Light Snow
8:33 PM 32.0 °F 24.2 °F 29.3 °F 90% 29.82 in 3.0 mi North 9.2 mph - N/A Snow Light Snow
8:52 PM 31.5 °F 23.5 °F 28.4 °F 88% 29.82 in 1.0 mi North 9.2 mph 17.3 mph N/A Snow Snow
9:13 PM 30.9 °F 21.7 °F 27.9 °F 88% 29.80 in 0.5 mi North 11.5 mph 19.6 mph 0.02 in Snow Snow
9:32 PM 30.7 °F 22.6 °F 27.5 °F 88% 29.81 in 1.2 mi North 9.2 mph 16.1 mph 0.02 in Snow Light Snow
10:52 PM 30.4 °F 22.9 °F 26.6 °F 86% 29.81 in 1.8 mi North 8.1 mph - 0.01 in Snow Light Snow
11:13 PM 29.8 °F 20.9 °F 26.4 °F 87% 29.80 in 1.2 mi North 10.4 mph - 0.01 in Snow Light Snow
11:32 PM 29.3 °F 20.8 °F 26.4 °F 89% 29.79 in 1.0 mi North 9.2 mph - 0.01 in Snow Snow
11:53 PM 29.3 °F 20.2 °F 26.2 °F 88% 29.77 in 1.2 mi North 10.4 mph - 0.01 in Snow Light Snow